Regional Weather Roundup
Issued by NWS

Home | Current Version | Previous Version | Text Only | Print | Product List | Glossary On
Versions: 1 2 3 4 5 6 7 8 9 10 11 12 13 14 15 16 17 18 19 20 21 22 23 24 25 26 27 28 29 30 31 32 33 34 35 36 37 38 39 40 41 42 43 44 45 46 47 48 49 50
000
ASUS43 KLOT 310200
RWRIL

ILLINOIS REGIONAL WEATHER ROUNDUP
NATIONAL WEATHER SERVICE CHICAGO/ROMEOVILLE IL
900 PM CDT WED JUL 30 2014

NOTE: "FAIR" INDICATES FEW OR NO CLOUDS BELOW 12,000 FEET WITH NO
SIGNIFICANT WEATHER AND/OR OBSTRUCTIONS TO VISIBILITY.

* THESE STATIONS ARE NOT UNDER NWS QUALITY CONTROL. THEY ALSO MAY NOT
  REPORT WEATHER SUCH AS PRECIPITATION OR FOG.

ILZ001-002-007-009-015-016-024-310300-
NORTHWEST ILLINOIS

CITY           SKY/WX    TMP DP  RH WIND       PRES   REMARKS
MOLINE         CLEAR     68  59  73 W3        30.04R
STERLING*      CLEAR     66  55  68 NW3       30.04R
$$

ILZ003-004-008-010-011-017-018-310300-
NORTH CENTRAL ILLINOIS

CITY           SKY/WX    TMP DP  RH WIND       PRES   REMARKS
ROCKFORD       PTCLDY    69  54  58 NW5       30.03R
$$

ILZ005-006-012>014-019>023-310300-
NORTHEAST ILLINOIS

CITY           SKY/WX    TMP DP  RH WIND       PRES   REMARKS
CHICAGO-OHARE  PTCLDY    69  54  58 NE6       30.02R
CHICAGO-MIDWAY PTCLDY    69  59  70 E6        30.02R
AURORA         CLEAR     65  60  84 W6        30.02R
LANSING*       CLEAR     65  57  76 CALM      30.03R
WAUKEGAN       CLEAR     58  54  86 CALM      30.02R
DUPAGE AIRPORT CLEAR     68  59  73 E6        30.01R
WHEELING       CLEAR     66  57  72 E3        30.04R
NORTHERLY ISL    N/A     64  60  87 E2          N/A
$$

LMZ740>746-310300-
SOUTHERN LAKE MICHIGAN

STATION/POSITION SKY/WX   TEMP    WIND        PRES    VSBY  WAVE
                          AIR SEA DIR/SP/G                  HT/PER
                          (F)     (DEG/KT/KT) (MB)    (MI)  (FT/S)
SOUTHERN BUOY              61 61   70/  2/  2 1016.3F         1
WAUKEGAN HARBOR            63     170/  5/  5   N/A
HARRISON CRIB              64      90/  4/  6   N/A
BURNHAM HARBOR             64      60/  3/  5   N/A
CALUMET HARBOR             65      40/  4/  5 1015.4R
MICHIGAN CITY              64      50/  6/  7   N/A
MICHIGAN CITY 6N           65 69   60/  6/  8   N/A           1/ 3
ST. JOSEPH                 65 68   80/  4/  6   N/A           1/ 3
$$

ILZ025>027-034>036-040-047-049-050-058-095>099-310300-
WEST-CENTRAL ILLINOIS

CITY           SKY/WX    TMP DP  RH WIND       PRES   REMARKS
QUINCY         PTCLDY    69  61  75 CALM      30.06S
GALESBURG*     CLEAR     68  62  79 CALM      30.05S
MACOMB*        MOCLDY    66  62  87 W5        30.07S
$$

ILZ028>032-037-038-041>044-048-051>054-059>061-310300-
CENTRAL ILLINOIS

CITY           SKY/WX    TMP DP  RH WIND       PRES   REMARKS
DECATUR        CLEAR     74  59  59 W3        30.06R
PEORIA         MOCLDY    74  59  59 SW5       30.05R
SPRINGFIELD    CLEAR     68  63  84 CALM      30.05S
TAYLORVILLE    NOT AVBL
$$

ILZ033-039-045-046-055>057-062-063-310300-
EAST-CENTRAL ILLINOIS

CITY           SKY/WX    TMP DP  RH WIND       PRES   REMARKS
CHAMPAIGN      CLEAR     68  62  81 SW5       30.05R
MATTOON        CLEAR     67  60  78 W3        30.05R
$$

ILZ079-100>102-310300-
SOUTHWEST ILLINOIS

CITY           SKY/WX    TMP DP  RH WIND       PRES   REMARKS
CAHOKIA*       MOCLDY    73  63  70 CALM      30.05R
SPARTA*        MOCLDY    70  63  78 S3        30.07R
$$

ILZ064>066-069>071-074>076-080>082-084>086-088>090-092>094-310300-
SOUTH-CENTRAL ILLINOIS

CITY           SKY/WX    TMP DP  RH WIND       PRES   REMARKS
CARBONDALE     CLOUDY    68  63  84 CALM      30.06S
MT. VERNON     PTCLDY    68  57  68 CALM      30.07S
SALEM*         PTCLDY   N/A N/A N/A SW6       30.07R
$$

ILZ067-068-072-073-078-083-087-091-310300-
SOUTHEAST ILLINOIS

CITY           SKY/WX    TMP DP  RH WIND       PRES   REMARKS
LAWRENCEVILLE  MOCLDY    69  63  81 SW7       30.05R
HARRISBURG*    MOCLDY    67  62  85 CALM      30.08R
ROBINSON*      PTCLDY    68  62  81 CALM      30.06R
$$

ABBREVIATIONS USED IN REMARKS
   TC - TEMPERATURE IN CELSIUS
  WCI - WIND CHILL INDEX
   HX - HEAT INDEX
  VSB - VISIBILITY
$$




USA.gov is the U.S. government's official web portal to all federal, state and local government web resources and services.